Погода в Новоспасском

Россия / Ульяновская область     53°08′50″N   47°45′56″E
темп.,
°C
ветер,
м/с
пор.,
м/с
влажн.,
%
обл.,
%
осадки,
мм/ч
давл.,
гПа
погр.,
м
16 мая, вс
вс1601:00+18ююв385276 0.0 1017124
04:00+16ююв225916 0.0 101719
07:00+19ююв296123 0.0 1017225
10:00+25ю584060 0.0 1018552
13:00+27ююз683384 0.0 10181225
16:00+28ююз51029100 0.0 10172183
19:00+25ююв114763 0.0 101611
22:00+21вюв114983 0.0 101711
17 мая, пн
пн1701:00+19юв115448 0.0 101711
04:00+19вюв115393 0.0 101711
07:00+19юв225965 0.0 101853
10:00+25ю244172 0.0 1018481
13:00+29ю46255 0.0 10181904
16:00+29ю462486 0.0 10183060
19:00+26юв1139100 0.0 101711
22:00+21вюв224497 0.0 101811
18 мая, вт
вт1801:00+19ююв114794 0.0 101811
04:00+17вюв22525 0.0 101811
07:00+19вюв24525 0.0 1018129
10:00+25вюв47365 0.0 1017483
13:00+29юв57285 0.0 10161480
16:00+30ююв46275 0.0 10161719
19:00+26вюв344299 0.0 101571
22:00+21вюв2245100 0.0 101623
19 мая, ср
ср1901:00+19в24457 0.0 101662
04:00+17в3104983 0.0 1016154
07:00+19вюв295422 0.0 1016237
10:00+24вюв59475 0.0 1015525
13:00+29юв78315 0.0 10141801
16:00+30юв610285 0.0 10133289
19:00+26в410394 0.0 1012294
22:00+21вюв365073 0.1 1013110
20 мая, чт
чт2001:00+19юв3866100 0.2 1014149
04:00+19юв5146395 0.2 1013488
07:00+20юв515645 0.0 1013649
10:00+23ю8105296 0.0 1013914
13:00+25ююз71050100 0.0 10141590
16:00+23юз6962100 0.6 10151217
19:00+18зсз4684100 0.9 1017400
22:00+16сз3884100 1.0 1018291